Weather History for Kirksville, MO

Change the Weather History Date:

Friday, June 21, 2013

  Actual Average Record
Temperature  
Mean Temperature 81 °F 72 °F  
Max Temperature 91 °F 82 °F 98 °F (1988)
Min Temperature 71 °F 62 °F 45 °F (1992)
Degree Days  
Heating Degree Days 0 0  
Month to date heating degree days 36 12  
Since 1 June heating degree days 36 12  
Since 1 July heating degree days 6071 5852  
Cooling Degree Days 16 7  
Month to date cooling degree days 104 117  
Year to date cooling degree days 172 179  
Since 1 June cooling degree days 104 117  
Growing Degree Days 31 (Base 50)    
Moisture  
Dew Point 71 °F    
Average Humidity 73    
Maximum Humidity 87    
Minimum Humidity 59    
Precipitation  
Precipitation 0.00 in 0.15 in 3.31 in (1939)
Month to date precipitation 1.79 3.68  
Year to date precipitation 26.26 17.83  
Sea Level Pressure  
Sea Level Pressure 29.99 in    
Wind  
Wind Speed 10 mph (South)    
Max Wind Speed 21 mph    
Max Gust Speed 26 mph    
Visibility 10 miles    
Events      
T = Trace of Precipitation, MM = Missing Value Source: NWS Daily Summary

Daily Weather History Graph

Daily Weather History Graph

Search for Another Location

Airport:

Trip Planner

Search our weather history database for the weather conditions in past years. The results will help you decide how hot, cold, wet, or windy it might be!

Date:

Astronomy

Jun. 21, 2013 Rise Set
Actual Time 5:41 AM CDT 8:42 PM CDT
Civil Twilight 5:08 AM CDT 9:15 PM CDT
Nautical Twilight 4:26 AM CDT 9:57 PM CDT
Astronomical Twilight 3:37 AM CDT 10:46 PM CDT
Moon 6:54 PM CDT (6/21) 3:57 AM CDT (6/21)
Length of Visible Light 16h 07m
Length of Day
15h 01m
Waxing Gibbous, 95% of the Moon is Illuminated
Jun 21
Waxing Gibbous
Jun 23
Full
Jun 29
Last Quarter
Jul 8
New
Jul 15
First Quarter

Hourly Weather History & Observations

Time (CDT) Temp. Heat Index Dew Point Humidity Pressure Visibility Wind Dir Wind Speed Gust Speed Precip Events Conditions
12:55 AM 75.9 °F - 64.9 °F 69% 30.02 in 10.0 mi South 11.5 mph 19.6 mph N/A   Clear
1:55 AM 75.0 °F - 66.0 °F 73% 30.03 in 10.0 mi South 8.1 mph - N/A   Clear
2:55 AM 73.0 °F - 66.0 °F 79% 30.01 in 10.0 mi SSE 6.9 mph - N/A   Clear
3:55 AM 72.0 °F - 66.9 °F 84% 29.99 in 10.0 mi SSE 5.8 mph - N/A   Clear
4:55 AM 73.9 °F - 66.9 °F 79% 29.99 in 10.0 mi South 11.5 mph - N/A   Clear
5:55 AM 73.0 °F - 66.9 °F 81% 30.01 in 10.0 mi South 9.2 mph - N/A   Clear
6:55 AM 73.9 °F - 68.0 °F 82% 30.03 in 10.0 mi South 8.1 mph - N/A   Clear
7:55 AM 75.9 °F - 70.0 °F 82% 30.01 in 10.0 mi South 10.4 mph - N/A   Clear
8:55 AM 80.1 °F 83.6 °F 71.1 °F 74% 30.00 in 10.0 mi SSW 16.1 mph 21.9 mph N/A   Clear
9:55 AM 82.9 °F 87.5 °F 71.1 °F 67% 30.00 in 10.0 mi SSW 13.8 mph 20.7 mph N/A   Clear
10:55 AM 84.9 °F 90.7 °F 72.0 °F 65% 30.00 in 10.0 mi South 18.4 mph 24.2 mph N/A   Clear
11:55 AM 87.1 °F 93.6 °F 72.0 °F 61% 30.00 in 10.0 mi SSW 11.5 mph 21.9 mph N/A   Clear
12:55 PM 88.0 °F 96.5 °F 73.9 °F 63% 29.99 in 10.0 mi South 11.5 mph 20.7 mph N/A   Clear
1:55 PM 88.0 °F 96.5 °F 73.9 °F 63% 30.00 in 10.0 mi South 5.8 mph - N/A   Clear
2:55 PM 90.0 °F 100.2 °F 75.0 °F 61% 29.99 in 10.0 mi South 9.2 mph - N/A   Scattered Clouds
3:55 PM 90.0 °F 100.2 °F 75.0 °F 61% 29.98 in 10.0 mi South 13.8 mph - N/A   Partly Cloudy
4:55 PM 89.1 °F 98.0 °F 73.9 °F 61% 29.95 in 10.0 mi South 16.1 mph 21.9 mph N/A   Clear
5:55 PM 86.0 °F 93.8 °F 73.9 °F 67% 29.94 in 10.0 mi South 12.7 mph - N/A   Clear
6:55 PM 86.0 °F 93.8 °F 73.9 °F 67% 29.94 in 10.0 mi SSE 12.7 mph 19.6 mph N/A   Clear
7:55 PM 82.9 °F 89.4 °F 73.9 °F 74% 29.94 in 10.0 mi South 9.2 mph - N/A   Clear
8:55 PM 81.0 °F 85.8 °F 73.0 °F 77% 29.94 in 10.0 mi South 9.2 mph - N/A   Clear
9:55 PM 80.1 °F 83.8 °F 72.0 °F 76% 29.98 in 10.0 mi South 6.9 mph - N/A   Partly Cloudy
10:55 PM 79.0 °F - 72.0 °F 79% 29.99 in 10.0 mi South 6.9 mph - N/A   Scattered Clouds
11:55 PM 75.9 °F - 72.0 °F 87% 29.99 in 10.0 mi South 6.9 mph - N/A   Clear